This demonstration page uses our WeatherBlox Daily Observations layout. Learn more.

Left ArrowRight Arrow

Hourly Observations for September 10, 2022

Temp ( °F °C ) Dew Point ( °F °C ) Humidity (%) Winds ( mph kmh ) Pressure ( in mb ) Visibility ( mi km ) Precip ( " mm )
12:09 am 00:09 Cloudy 57 13.9 54 12.2 89 89 N 12 19 30.05 1018 10 16 0.00 0.00
12:26 am 00:26 Cloudy with Nearby Thunderstorms 57 13.9 53 11.7 87 87 NW 18 30 30.09 1019 10 16 0.00 0.00
12:37 am 00:37 Cloudy 56 13.3 52 11.1 87 87 N 21 33 30.08 1019 10 16 0.00 0.00
12:43 am 00:43 Cloudy with Nearby Thunderstorms 55 12.8 51 10.6 86 86 N 18 30 30.10 1019 10 16 0.00 0.00
12:53 am 00:53 Cloudy with Nearby Thunderstorms 55 12.8 51 10.6 86 86 N 22 35 30.10 1019 6 10 0.04 1.02
1:11 am 01:11 Cloudy with Nearby Thunderstorms 53 11.7 52 11.1 96 96 NNE 17 28 30.13 1020 3 4 0.18 4.57
1:22 am 01:22 Cloudy with Nearby Thunderstorms 52 11.1 52 11.1 100 100 ENE 23 37 30.08 1019 1 2 0.58 14.73
1:36 am 01:36 Cloudy with Nearby Thunderstorms 53 11.7 53 11.7 100 100 NE 22 35 30.10 1019 2 3 0.80 20.32
1:46 am 01:46 Cloudy with Thunderstorms 53 11.7 53 11.7 100 100 undefined N/A 30.12 1020 3 5 0.86 21.84
1:53 am 01:53 Cloudy with Thunderstorms 53 11.7 53 11.7 100 100 undefined N/A 30.09 1019 4 6 0.88 22.35
2:05 am 02:05 Cloudy with Thunderstorms 54 12.2 54 12.2 100 100 NNE 16 26 30.11 1020 8 13 0.01 0.25
2:11 am 02:11 Cloudy with Light Rain 54 12.2 53 11.7 97 97 NNE 16 26 30.11 1020 10 16 0.01 0.25
2:29 am 02:29 Cloudy 54 12.2 53 11.7 97 97 NNE 12 19 30.09 1019 10 16 0.01 0.25
2:37 am 02:37 Cloudy 54 12.2 53 11.7 97 97 NE 12 19 30.08 1019 10 16 0.01 0.25
2:49 am 02:49 Cloudy with Light Rain 54 12 54 12 100 100 N 13 20 30.11 1020 10 16 0.02 0.51
2:53 am 02:53 Cloudy with Light Rain 54 12.2 53 11.7 97 97 N 10 17 30.10 1019 8 13 0.03 0.76
3:14 am 03:14 Cloudy with Nearby Thunderstorms 54 12.2 53 11.7 97 97 N 12 19 30.12 1020 8 13 0.03 0.76
3:29 am 03:29 Cloudy with Light Rain 54 12.2 53 11.7 97 97 NE 10 17 30.11 1020 6 10 0.05 1.27
3:44 am 03:44 Cloudy with Rain 54 12.2 53 11.7 97 97 NNE 14 22 30.11 1020 4 6 0.10 2.54
3:53 am 03:53 Cloudy with Rain 54 12.2 53 11.7 97 97 NNE 9 15 30.10 1019 4 6 0.12 3.05
4:53 am 04:53 Cloudy with Light Rain 55 12.8 53 11.7 93 93 NNE 13 20 30.09 1019 10 16 0.05 1.27
5:53 am 05:53 Cloudy with Light Rain 55 12.8 53 11.7 93 93 NNE 12 19 30.11 1020 10 16 0.05 1.27
6:53 am 06:53 Cloudy 54 12.2 53 11.7 97 97 N 13 20 30.14 1021 10 16 0.01 0.13
7:19 am 07:19 Cloudy 54 12.2 52 11.1 93 93 N 10 17 30.17 1022 10 16 0.00 0.00
7:53 am 07:53 Cloudy with Light Rain 54 12.2 52 11.1 93 93 N 10 17 30.19 1022 10 16 0.01 0.13
8:13 am 08:13 Cloudy with Light Rain 54 12.2 53 11.7 97 97 N 8 13 30.19 1022 7 11 0.01 0.13
8:22 am 08:22 Cloudy with Light Rain 54 12.2 53 11.7 97 97 NNE 8 13 30.18 1022 9 14 0.01 0.13
8:45 am 08:45 Cloudy with Light Rain 54 12.2 53 11.7 97 97 N 8 13 30.19 1022 10 16 0.01 0.13
8:53 am 08:53 Cloudy with Light Rain 54 12.2 53 11.7 97 97 N 9 15 30.20 1023 10 16 0.01 0.25
9:53 am 09:53 Cloudy 54 12.2 53 11.7 97 97 NE 9 15 30.19 1023 10 16 0.01 0.13
10:53 am 10:53 Cloudy with Light Rain 55 12.8 53 11.7 93 93 NNE 8 13 30.23 1024 10 16 0.01 0.13
11:53 am 11:53 Cloudy 57 13.9 54 12.2 89 89 NNE 9 15 30.24 1024 10 16 0.01 0.25
12:01 pm 12:01 Cloudy 57 13.9 54 12.2 89 89 NE 10 17 30.21 1023 10 16 0.00 0.00
12:53 pm 12:53 Cloudy with Light Rain 58 14.4 55 12.8 90 90 N 9 15 30.25 1024 8 13 0.01 0.13
1:00 pm 13:00 Cloudy with Light Rain 58 14.4 54 12.2 87 87 N 8 13 30.24 1024 9 14 0.01 0.25
1:09 pm 13:09 Cloudy with Light Rain 58 14.4 55 12.8 90 90 N 8 13 30.23 1024 10 16 0.01 0.25
1:31 pm 13:31 Mostly Cloudy 60 15.6 54 12.2 80 80 NNW 9 15 30.23 1024 10 16 0.01 0.25
1:53 pm 13:53 Mostly Cloudy 60 15.6 54 12.2 80 80 N 10 17 30.24 1024 10 16 0.01 0.25
2:06 pm 14:06 Mostly Cloudy with Light Rain 59 15 54 12.2 83 83 N 10 17 30.23 1024 10 16 0.01 0.13
2:39 pm 14:39 Partly Cloudy 60 15.6 54 12.2 80 80 N 12 19 30.22 1023 10 16 0.01 0.13
2:53 pm 14:53 Partly Cloudy 60 15.6 54 12.2 80 80 N 10 17 30.24 1024 10 16 0.01 0.13
3:53 pm 15:53 Mostly Sunny 62 16.7 52 11.1 70 70 N 13 20 30.23 1024 10 16 0.00 0.00
4:53 pm 16:53 Sunny 64 17.8 48 8.9 56 56 N 9 15 30.23 1024 10 16 0.00 0.00
5:53 pm 17:53 Sunny 66 18.9 43 6.1 43 43 NNE 12 19 30.23 1024 10 16 0.00 0.00
6:53 pm 18:53 Sunny 63 17.2 49 9.4 60 60 NE 3 6 30.24 1024 10 16 0.00 0.00
7:53 pm 19:53 Clear 59 15 49 9.4 69 69 Calm 30.24 1024 10 16 0.00 0.00
8:53 pm 20:53 Clear 56 13.3 50 10 80 80 Calm 30.26 1025 8 13 0.00 0.00
9:53 pm 21:53 Clear 54 12.2 49 9.4 83 83 Calm 30.28 1025 10 16 0.00 0.00
10:53 pm 22:53 Clear 54 12.2 48 8.9 80 80 W 3 6 30.28 1025 10 16 0.00 0.00
11:53 pm 23:53 Clear 53 11.7 47 8.3 80 80 W 5 7 30.29 1026 10 16 0.00 0.00

Powered by AerisWeather